Location: �chemir�
(47.5500°N, 0.1667°W)
Time: 14:46:05
(UTC+02:00)

ISS - Pass Details

Date: 18 May 2021
Orbit: 419 x 422 km, 51.6° (Epoch: 25 June)

Event Time Altitude Azimuth Distance (km) Brightness Sun altitude
Rises 01:06:42 0° 282° (WNW) 2,372 0.4 -22.0°
Reaches altitude 10° 01:08:54 10° 290° (WNW) 1,508 -0.6 -22.0°
Maximum altitude 01:12:06 39° 1° (N) 648 -2.3 -22.1°
Enters shadow 01:14:51 13° 69° (ENE) 1,334 -1.1 -22.2°
